Theta_e
297 293 288 292 292 293 291 289 289 294 298 293 293 293 298 299 297 297 301 315 322 325 325 326 327 330 333 334 332 332 332 334 335 336 339 339 338 339 339 341 343 343 342 342
294 290 296 297 296 294 293 290 290 294 297 293 295 294 297 298 298 298 307 314 317 317 320 323 328 335 335 337 337 333 334 336 337 337 338 341 341 342 343 344 344 343 342 341
291 296 300 298 296 295 292 290 291 292 297 296 293 291 294 298 301 306 309 316 317 318 320 331 335 334 335 336 338 338 339 338 340 342 344 339 342 344 343 343 344 344 344 343
293 298 298 296 295 295 289 297 296 295 292 287 292 287 290 295 299 305 305 310 319 323 333 333 330 330 331 332 334 336 339 343 344 346 344 342 342 335 340 341 344 343 343 342
294 295 295 294 296 300 295 300 296 296 291 287 288 285 288 299 299 302 306 316 318 325 326 324 323 324 325 326 328 331 334 336 338 340 344 343 339 341 339 342 343 342 342 342
295 299 299 298 300 301 301 297 294 290 287 284 287 286 286 295 299 302 306 314 318 320 321 322 322 322 322 324 325 328 330 331 334 335 335 336 335 335 335 337 339 342 342 341
294 295 298 301 296 298 295 290 283 282 282 282 291 287 292 301 302 303 305 308 313 319 320 320 318 318 318 319 321 324 324 323 329 331 333 332 334 334 333 335 338 339 340 341
287 286 294 300 296 292 292 289 284 279 280 283 291 287 294 303 305 306 307 307 308 308 313 317 320 319 319 319 320 321 320 320 321 321 322 324 326 330 331 332 333 332 333 336
286 288 297 299 298 296 291 287 292 286 287 283 286 295 302 306 304 304 304 306 306 307 307 308 311 311 311 311 311 312 313 314 316 317 318 318 320 320 319 321 326 331 331 333
291 285 294 297 299 298 294 297 286 285 277 278 284 286 291 300 300 301 302 303 306 308 309 309 308 307 310 312 311 310 309 309 310 310 310 311 312 314 315 315 316 319 325 327
291 287 288 292 290 290 292 290 291 288 288 283 280 284 302 301 303 300 302 304 306 307 309 310 310 309 306 306 306 306 307 308 308 309 308 307 308 309 310 312 314 315 316 320
291 287 282 286 294 300 296 292 290 282 281 288 286 285 302 304 305 305 304 306 308 310 309 311 310 312 308 305 306 306 307 306 306 307 307 306 305 306 306 308 310 314 314 316
290 283 280 283 286 291 290 295 294 289 287 285 284 284 303 304 306 307 303 304 305 308 309 310 310 310 310 306 305 305 306 306 307 307 306 306 306 305 305 306 308 311 312 314
295 284 284 280 284 287 287 290 294 290 283 284 286 289 295 300 301 304 305 305 305 308 309 310 308 309 304 304 304 304 304 305 306 306 306 305 304 304 304 305 307 309 311 312
289 283 286 288 290 292 291 290 291 290 290 287 289 289 294 298 300 305 306 307 307 308 309 308 308 303 301 302 303 303 303 304 304 305 304 305 305 306 306 305 307 308 309 311
289 284 287 287 292 291 288 289 290 290 291 291 292 291 298 299 304 304 305 305 306 305 307 304 301 302 301 301 301 302 302 303 303 303 302 305 305 305 304 305 306 306 307 308
286 284 281 279 288 287 281 287 289 290 292 290 284 289 295 299 302 303 303 300 299 299 299 300 300 300 300 300 301 301 302 303 302 302 303 304 304 303 304 305 305 304 304 305
285 283 282 279 282 275 285 293 295 292 293 293 292 293 295 295 297 299 301 300 300 299 301 301 301 299 299 299 300 302 302 301 301 301 301 303 303 303 304 304 303 301 302 303
289 284 280 277 278 283 288 293 291 287 289 295 293 294 295 297 297 296 300 300 298 298 300 300 301 299 298 299 299 300 300 300 300 301 301 303 303 303 303 302 301 301 301 302
289 288 286 279 276 274 285 294 298 293 283 295 295 295 295 294 287 291 298 299 300 300 301 299 298 298 298 299 299 299 298 298 299 301 301 303 303 302 302 301 301 300 301 302
283 283 281 276 276 282 290 297 299 284 284 296 296 295 294 291 293 297 299 298 298 298 299 298 298 297 298 298 298 297 297 297 300 301 302 302 302 302 302 301 300 300 301 301
284 281 279 280 279 280 296 296 288 289 293 295 295 295 294 294 295 296 296 296 297 296 297 298 297 297 298 297 296 296 296 299 300 301 301 302 301 302 304 301 301 301 300 299
282 286 284 284 283 290 295 295 297 297 296 295 296 297 296 294 294 295 294 294 295 296 296 297 296 296 297 297 299 296 298 299 301 300 300 300 301 301 302 300 300 299 299 298
287 293 287 287 289 293 295 298 299 300 298 299 298 298 298 295 293 292 293 293 293 295 295 296 295 295 295 297 299 301 303 304 301 299 299 299 299 299 299 300 299 298 298 297
287 288 287 287 291 292 295 298 299 300 300 300 300 298 296 294 293 292 292 292 293 294 294 294 294 295 296 299 300 303 304 303 299 299 298 298 298 297 297 297 298 299 299 299
288 286 282 282 290 290 292 298 300 299 299 298 296 294 295 294 293 293 292 292 293 293 294 294 295 295 298 299 299 301 302 302 300 297 298 296 296 296 296 295 297 296 296 296
Wind_Speed
4 6 3 7 6 5 3 3 5 13 16 3 10 6 14 11 6 7 7 8 8 9 3 2 4 4 7 6 5 4 3 4 5 3 4 3 3 5 4 5 7 5 7 7
7 3 8 4 5 5 5 4 10 9 12 4 9 11 7 5 5 4 9 10 9 5 7 5 5 5 4 3 3 7 5 5 3 3 3 3 4 3 1 3 5 7 7 7
4 8 4 2 6 3 3 4 6 7 11 3 4 8 6 5 10 14 9 3 6 6 8 6 7 6 5 5 5 5 6 7 3 5 5 3 2 1 1 2 3 5 7 8
4 4 2 7 4 1 2 5 7 6 3 6 3 10 6 8 5 14 13 8 8 6 8 10 8 7 8 7 6 6 7 6 5 6 4 4 3 3 1 3 3 2 4 5
6 5 7 6 5 4 3 9 7 5 5 3 2 2 6 8 7 14 12 9 10 11 12 10 10 8 7 7 7 9 12 12 8 8 6 6 6 3 2 2 5 2 4 5
4 3 6 4 3 3 9 8 5 5 2 4 6 3 5 5 7 8 10 11 10 12 11 8 7 7 7 7 9 8 13 12 12 12 11 11 9 6 3 4 4 3 3 4
7 3 4 5 5 8 12 9 6 6 5 6 6 3 2 6 6 6 6 11 12 10 9 7 6 6 9 10 9 8 12 12 11 9 10 8 10 7 7 5 3 5 3 3
3 6 5 7 4 4 5 4 5 6 2 6 6 4 4 7 5 7 8 13 16 15 8 8 6 6 10 12 10 11 13 12 10 9 10 8 11 6 4 5 6 5 4 5
3 5 5 6 3 1 5 2 1 1 3 3 4 2 4 6 4 6 12 16 14 13 15 13 8 9 9 12 11 11 12 12 11 10 8 9 7 8 7 8 6 4 5 5
4 3 2 5 5 4 3 2 2 4 1 5 5 4 4 10 7 4 11 13 8 12 12 10 11 8 5 6 8 6 12 11 9 10 9 8 9 9 6 5 6 6 5 6
4 3 5 3 4 4 5 3 6 3 2 2 3 5 7 7 9 8 10 10 8 12 8 5 6 10 4 10 4 4 8 10 9 8 6 8 8 9 10 9 7 7 7 7
1 5 1 2 5 3 3 2 3 5 4 3 3 7 3 4 4 10 5 8 10 16 7 6 11 12 11 6 5 8 6 8 7 4 5 5 5 6 6 6 8 7 7 8
4 2 3 7 6 4 2 3 3 3 2 6 3 6 5 4 8 6 7 7 5 8 4 3 4 3 7 6 1 5 5 5 3 4 7 9 9 8 8 8 8 9 8 7
5 3 8 7 7 4 5 4 6 7 4 4 7 7 7 5 6 10 14 11 9 5 7 5 6 8 4 5 2 3 8 8 6 8 8 7 7 7 6 7 7 7 9 7
5 4 4 5 6 6 8 8 7 9 12 8 12 10 11 12 16 15 13 12 12 9 9 9 8 5 2 2 2 5 6 5 5 5 5 5 5 5 5 7 7 7 7 8
2 3 2 4 7 8 8 12 12 14 12 10 14 15 16 4 11 10 12 11 11 12 13 9 7 6 5 2 2 5 4 4 4 5 5 6 5 5 4 5 6 6 6 7
4 5 3 5 3 6 7 3 6 1 2 3 5 5 2 3 9 12 9 7 7 7 7 7 5 5 4 2 1 2 1 1 3 5 6 6 6 6 6 5 5 7 7 5
6 6 3 3 3 2 8 7 5 7 2 5 4 3 4 6 6 6 6 8 7 8 6 5 1 3 5 2 1 2 2 2 3 4 5 5 5 6 6 6 5 6 5 5
7 6 2 3 3 7 7 3 2 2 3 4 4 6 8 9 9 7 3 4 5 4 3 4 6 4 4 5 3 1 4 5 5 6 6 6 5 6 6 6 7 6 5 5
6 4 4 3 3 5 7 5 3 3 3 2 5 5 5 1 4 3 0 2 3 3 4 4 6 3 5 5 3 4 7 6 6 6 7 6 6 6 6 6 6 4 4 6
3 2 6 3 4 7 5 8 7 4 9 5 4 4 1 2 4 4 5 5 5 5 5 6 6 6 7 5 4 7 6 7 8 6 6 7 7 6 7 6 3 4 6 5
5 5 4 2 1 8 2 4 3 5 3 5 5 4 4 5 4 3 2 1 3 3 4 5 4 5 5 5 4 7 7 9 8 7 7 7 7 5 5 6 5 6 6 5
2 6 5 8 7 5 3 6 3 3 3 3 5 5 6 5 3 2 2 5 5 5 4 4 3 5 7 7 5 5 7 7 7 6 8 7 6 6 5 5 6 5 5 4
3 1 2 3 3 4 6 5 5 6 6 4 3 3 6 4 1 2 3 2 4 4 4 4 5 6 6 7 7 5 7 7 6 7 7 6 6 6 5 4 4 4 4 4
5 4 2 4 7 6 6 7 6 5 6 8 4 2 3 5 4 4 2 3 4 4 5 4 4 5 7 7 7 7 8 6 6 5 5 5 4 5 5 5 5 5 5 5
6 8 5 6 8 5 7 5 3 4 2 4 8 5 4 5 5 3 2 3 3 5 4 5 6 6 6 6 7 6 6 5 4 5 4 4 4 4 5 5 6 8 12 14
Wind_Direction
10 59 280 254 200 208 245 236 256 277 281 260 273 276 287 308 297 239 173 166 190 175 163 133 112 97 110 120 144 203 204 232 158 139 129 134 187 211 200 200 224 232 224 209
14 306 259 240 235 227 230 260 279 283 274 149 287 287 284 301 303 265 169 161 177 152 132 135 119 103 101 119 145 183 197 221 190 145 145 139 147 212 172 185 250 219 209 186
153 247 353 294 307 296 267 215 264 250 305 253 267 304 330 343 32 19 2 13 135 155 126 107 91 76 74 93 103 132 178 191 168 163 130 79 67 95 145 130 220 234 218 208
216 286 14 332 313 5 299 294 264 265 351 288 120 285 308 350 353 12 358 12 11 29 104 101 68 49 41 22 47 84 75 113 141 150 123 124 140 188 248 225 241 279 259 255
263 304 348 38 330 324 269 315 284 259 244 302 65 63 254 352 333 354 332 56 45 58 61 45 71 59 43 22 23 41 61 51 46 78 91 124 95 93 54 35 37 25 262 236
268 360 49 344 324 94 303 341 8 25 90 271 336 189 272 346 332 331 342 51 59 79 61 48 10 42 56 34 26 39 64 55 50 47 45 68 70 57 66 24 27 3 335 309
342 3 328 32 24 353 7 34 347 330 356 245 333 17 286 354 354 347 339 49 49 57 61 44 10 41 57 56 52 62 64 51 44 46 63 58 65 52 29 32 9 360 343 356
57 328 29 352 65 278 283 134 163 274 270 272 340 320 342 89 70 56 50 69 55 56 36 41 18 21 49 52 44 51 53 54 45 44 41 37 48 47 41 21 18 358 359 337
64 280 337 54 335 340 307 51 204 137 314 351 237 138 202 160 114 85 71 66 60 51 40 33 45 63 56 64 56 55 50 52 45 43 42 40 44 38 28 17 8 351 339 328
195 305 25 300 15 17 57 115 19 12 316 288 304 286 296 181 161 138 75 71 57 56 36 17 29 2 23 50 74 76 75 67 57 46 36 32 29 26 24 26 6 342 328 338
125 122 292 24 360 310 350 20 54 98 161 230 293 271 6 289 169 195 124 100 82 51 20 349 15 17 9 34 24 64 67 61 55 57 40 40 16 14 15 10 353 343 332 337
56 136 109 252 298 10 94 134 125 121 251 257 292 261 159 101 188 254 194 160 166 121 280 319 38 7 344 82 332 20 45 57 54 67 61 48 31 20 25 7 353 338 326 322
180 29 28 351 346 355 9 201 166 102 66 222 227 264 190 157 134 232 226 216 193 139 139 33 47 318 278 314 338 37 47 61 34 26 33 18 10 10 357 353 348 345 335 316
91 149 160 196 214 179 286 237 214 169 177 208 223 281 283 192 187 178 208 207 202 173 173 192 208 234 229 258 86 51 38 30 28 19 21 17 1 353 350 342 345 345 342 329
96 200 189 241 239 240 250 271 248 199 230 216 251 229 251 221 197 205 196 196 203 207 200 202 213 237 233 84 33 46 38 27 12 13 17 357 355 346 358 360 349 347 349 347
31 259 192 260 256 259 272 274 265 264 243 241 248 258 249 268 185 166 190 192 188 196 198 182 146 159 181 133 55 47 16 8 17 9 339 316 332 329 336 341 346 354 350 342
172 156 103 265 273 313 294 232 258 167 35 291 246 266 134 99 153 169 161 142 141 126 117 126 161 167 184 199 95 60 193 253 340 337 333 327 326 327 330 332 346 346 332 331
150 131 136 245 356 263 245 310 144 109 354 331 6 61 66 91 88 86 101 109 118 123 137 150 199 270 255 250 208 223 235 280 319 306 300 300 304 304 312 324 324 316 295 306
161 131 150 148 190 294 313 126 306 305 318 2 93 100 90 84 73 31 51 114 136 139 139 166 216 243 250 234 225 242 327 335 323 294 279 279 277 280 292 298 301 296 290 306
97 87 138 133 162 230 241 278 14 106 304 259 146 159 158 63 92 229 350 89 123 161 201 224 234 261 299 281 310 321 304 308 288 274 268 271 276 268 275 274 276 261 242 265
90 61 197 140 213 285 261 306 309 189 240 174 153 130 99 128 213 168 153 162 183 198 214 188 206 236 248 282 324 297 298 289 277 286 282 284 283 275 268 274 261 266 278 275
182 160 201 109 161 267 354 334 226 228 260 146 151 167 131 123 125 146 197 264 309 306 326 328 285 249 240 234 214 262 273 274 287 285 284 277 281 279 284 290 292 290 286 296
274 185 191 176 215 223 238 190 256 207 248 161 134 140 140 144 150 129 1 354 348 345 348 342 327 302 286 281 216 246 264 275 280 288 288 293 299 294 286 287 290 299 293 293
299 143 244 68 280 234 237 257 224 201 201 165 160 150 131 150 90 83 97 353 329 317 329 318 331 322 312 308 300 251 273 275 280 283 282 285 280 287 289 274 259 261 274 280
211 4 250 270 288 301 257 236 220 186 147 120 132 78 98 113 66 69 28 7 349 330 314 314 321 307 296 303 299 302 303 297 284 277 282 289 287 289 289 278 262 268 257 226
190 215 172 227 247 212 251 242 182 163 175 124 127 112 90 103 94 69 43 319 304 324 323 329 316 307 307 315 299 308 303 305 300 300 309 301 306 299 290 286 295 247 250 272